PEGASUS DEB, 24151

Orbit data source: Space-Track

PEGASUS DEB, 24151 is space debris in LEO originally from a launch on Thu, 19 May 1994 UTC launched from the Air Force Western Test Range (AFWTR). Debris objects in space refer to the collection of defunct objects orbiting the Earth. Examples of debris include non-operational satellites, rocket bodies, and fragments generated from explosions, collisions, or faulty payload assembly.

Loading next visibility...
Identifier
24151, 1994-029HA
Orbit
LEO
Country
Flag of USUS
Related business
Manufacturer
Unknown
Mission
Spacecraft
Bus & Motor
Unknown
Mass
Unknown
Launch date (UTC)
1994-05-19 (32 years ago)
Launch vehicle
Unknown
Launch site
Air Force Western Test Range (AFWTR)
Object type
Payload
Rocket body
Debris
Shape & HBR
Unknown shape, 0.2 m
Radar Cross Section
Small (<0.1 m²)

Expand to show TLE details & history
Last TLE update: 13 hours ago

TLE from 13 hours ago
0 PEGASUS DEB
1 24151U 94029HA  26118.81844242  .00001890  00000-0  30649-3 0  9991
2 24151  82.0182 237.2009 0149448 201.5344 157.9533 14.63523345585689
Epoch: 2026-04-28T19:38Z
TLE epoch observation values (Epoch: 2026-04-28T19:38:33.425Z)
Latitude
0.00001°
Longitude
85.77333°
Altitude
782.85 km
Speed
7.41 km/s
True Right ascension
15h 48m 48s
True Declination
0° 00' 00"
Sunlit
Object was in full shadow at epoch
Visualization orbit readout
Latitude
Unknown
Longitude
Unknown
Altitude
Unknown
Speed
Unknown
Apparent Right ascension
Unknown
Apparent Declination
Unknown
Sunlit
N/A
Visualization observer readout
Local Sidereal Time
16:25:28
Azimuth
Unknown
Elevation
Unknown
Doppler factor
Unknown
Orbital elements
Apogee altitude
784.352 km
Perigee altitude
573.42 km
Semi-major axis
7,057.023 km
Eccentricity
0.01494
Inclination
82.0182°
RAAN
237.2009°
Arg. of periapsis
201.5344°
True anomaly
158.58516°
Mean anomaly
157.9533°
Eccentric anomaly
158.27032°
Mean motion
3.66109 °/min
Orbital period
98.33 mins
BSTAR
0.00030649
Loading maneuver chart data...
Computing Atmospheric mass density...
Loading historical data...
Loading historical data...
Loading historical data...
Loading historical data...
Loading historical data...
Loading historical data...
Loading historical data...

Documentation

Showing up to 5 results
|